Wind_Speed
41 40 40 39 38 37 36 36 35 35 34 34 33 33 33 32 31 31 31 31 31 31 31 31 31 30 30 30 30 30 31 31 31 31 31 32 32 33
42 41 40 40 39 38 38 37 37 37 36 35 35 34 33 33 33 33 32 32 31 31 32 32 32 32 32 32 32 32 32 33 33 33 33 34 34 35
44 42 41 40 40 39 39 39 38 38 37 37 36 36 35 35 35 35 34 33 33 33 33 34 34 34 34 34 34 34 34 35 35 35 36 36 37 37
45 45 43 42 41 41 40 40 40 39 39 38 38 37 37 37 37 37 37 36 36 36 36 36 36 36 36 36 36 36 36 37 37 38 38 39 39 40
47 46 46 45 44 42 42 41 41 41 40 39 39 39 39 38 38 38 38 38 39 39 38 38 38 38 38 38 38 39 39 39 39 40 40 41 42 43
48 48 48 47 46 44 43 43 43 42 41 40 40 40 40 40 40 40 40 40 40 40 40 40 41 40 40 40 40 41 41 42 42 42 43 44 45 45
50 49 48 48 48 47 46 45 45 44 42 42 41 41 41 41 41 41 41 41 41 41 41 42 42 42 42 42 42 43 44 44 44 45 46 46 47 47
51 50 50 50 50 48 47 46 45 44 44 43 43 42 42 43 42 42 42 42 42 43 43 43 44 45 45 45 45 45 45 46 47 47 48 48 48 49
52 52 52 52 51 50 48 47 47 46 46 45 45 45 45 45 45 45 45 45 45 44 45 45 45 46 46 47 47 47 47 48 48 49 49 49 50 50
53 53 53 52 52 51 50 49 49 48 47 47 47 47 48 48 47 47 48 48 48 47 47 47 47 47 48 48 49 49 49 49 50 51 51 51 51 51
54 54 53 53 52 52 52 51 51 50 50 50 50 50 50 49 50 50 49 49 49 49 49 49 49 49 50 51 51 51 51 51 51 51 52 52 52 52
55 54 54 54 53 53 52 52 52 52 52 51 51 51 50 50 50 51 51 50 50 50 51 51 51 51 51 52 52 52 52 52 52 52 52 53 53 53
56 56 55 55 54 54 52 52 51 51 51 51 51 51 51 51 51 51 51 51 51 51 52 52 52 53 53 52 52 52 52 53 53 54 54 53 53 54
55 55 55 55 54 53 53 53 52 52 52 52 52 52 52 52 52 52 52 52 52 52 52 53 53 53 53 53 53 53 53 53 54 54 55 55 54 54
53 54 54 54 54 53 54 54 54 54 53 54 54 53 53 53 53 53 53 52 52 52 53 53 53 53 53 53 53 54 54 54 54 54 54 55 55 56
52 53 53 54 55 55 56 56 56 55 55 55 55 54 54 54 54 54 54 53 53 53 53 53 53 53 53 53 54 54 54 53 53 54 54 55 56 56
52 52 53 53 54 54 55 55 55 55 55 54 54 54 54 53 53 53 53 53 53 53 53 53 53 53 54 54 53 53 53 53 53 53 54 55 56 56
52 52 52 52 53 54 54 54 55 55 54 54 54 54 53 52 52 52 52 52 53 53 52 52 52 53 54 54 54 53 53 53 53 53 54 54 54 55
50 50 51 51 52 53 54 54 54 54 54 54 53 53 53 53 53 52 53 53 52 52 52 52 52 53 53 53 53 53 53 53 53 53 53 53 53 54
47 48 48 48 49 50 51 51 52 52 52 52 52 52 52 52 52 52 52 52 52 51 51 51 51 51 51 51 52 52 53 53 53 53 53 53 53 54
45 45 45 46 46 47 47 48 48 49 50 51 51 51 51 51 51 51 51 51 51 50 50 49 50 50 51 51 51 51 52 53 54 54 54 54 54 54
42 42 43 43 44 44 45 46 47 48 48 48 48 48 48 48 48 49 49 48 48 48 49 49 49 50 50 50 50 50 51 52 53 54 54 54 55 54
41 41 42 43 43 42 43 44 45 45 46 47 47 47 47 46 47 47 47 47 47 48 48 48 48 49 49 50 50 50 49 50 50 51 51 52 53 53
Wind_Direction
246 247 249 250 252 255 257 258 259 261 263 265 266 267 268 270 272 274 275 276 275 275 275 277 279 281 282 284 285 287 288 290 291 292 294 295 296 297
246 247 248 250 252 254 256 258 260 262 263 265 266 267 268 269 270 272 274 275 275 275 275 276 278 279 281 283 285 286 287 289 290 291 292 293 295 296
246 247 248 250 252 254 256 258 260 262 264 266 266 267 267 267 268 270 272 273 274 275 275 276 278 279 280 282 284 286 287 288 289 290 291 292 293 295
246 247 247 249 251 253 256 258 260 262 264 265 266 266 267 268 268 269 270 271 272 274 275 277 277 278 279 281 283 285 286 288 289 290 291 292 293 294
246 247 248 249 251 254 256 258 260 262 263 263 264 265 267 268 268 268 270 271 272 274 275 276 277 278 279 280 282 284 285 287 288 289 290 291 292 293
246 248 249 250 251 253 256 258 259 260 261 262 263 264 266 267 267 269 270 272 273 273 274 275 276 277 278 280 281 283 284 286 287 288 289 290 291 292
245 247 248 250 252 254 255 256 258 259 261 262 263 263 265 265 266 268 270 271 272 272 273 274 275 276 277 279 280 282 283 285 286 287 288 289 290 292
244 246 248 250 252 253 254 255 257 259 261 262 262 263 264 265 267 268 270 271 272 272 273 274 275 276 277 278 280 281 282 284 285 287 288 288 290 291
244 245 247 249 251 252 254 255 257 259 261 262 263 265 266 266 268 268 269 271 272 273 273 274 275 276 277 277 278 280 281 283 285 286 287 288 289 290
245 246 248 250 251 253 254 255 257 258 260 261 263 264 266 268 269 270 271 272 272 273 274 275 275 276 277 278 279 281 282 284 285 286 287 288 289 290
248 249 251 252 253 254 254 256 257 257 258 261 262 264 266 267 269 269 271 272 273 274 275 275 276 276 277 278 279 281 283 284 285 287 287 288 289 290
248 249 251 252 253 253 254 255 256 257 258 260 262 263 264 266 268 269 271 272 273 273 274 275 275 276 277 278 279 281 282 283 285 286 287 288 288 289
248 250 251 252 252 253 254 255 255 256 258 259 261 263 264 266 267 269 271 272 272 273 273 274 275 276 277 278 279 280 282 283 284 286 287 287 288 289
249 250 250 252 253 253 253 255 256 257 258 260 261 263 265 266 268 269 270 271 271 272 273 274 275 276 277 278 279 280 281 283 284 285 286 287 288 289
249 250 250 250 252 253 254 256 257 258 259 261 262 264 265 267 268 269 270 270 271 272 273 273 274 276 277 278 279 279 281 282 284 284 285 286 287 289
250 251 251 252 252 254 255 256 258 258 260 261 263 264 265 266 268 269 270 270 271 272 273 274 275 276 277 278 279 280 281 282 283 284 285 287 288 289
250 252 253 252 252 253 254 256 257 258 259 261 262 264 265 266 267 268 269 270 271 272 273 275 276 277 278 279 280 280 281 283 284 285 287 288 288 289
251 252 253 253 253 253 254 256 257 258 259 260 262 263 264 264 266 267 269 270 272 273 274 275 277 277 279 280 281 281 282 283 285 286 287 288 289 290
252 253 253 253 254 255 255 256 256 258 259 260 261 262 262 264 266 267 269 271 272 273 274 276 276 277 278 280 281 282 282 283 285 286 288 288 289 290
252 253 253 253 254 255 256 257 257 257 258 259 260 261 262 264 266 268 270 271 272 273 274 275 276 277 279 280 280 281 282 282 284 286 287 288 289 291
251 252 253 254 255 256 257 257 258 258 259 260 260 261 262 264 266 268 270 271 272 273 275 276 277 278 279 281 281 282 283 283 284 285 286 287 288 290
252 253 253 254 256 257 258 258 258 259 260 260 262 263 263 264 266 268 269 271 272 273 275 276 277 279 280 282 283 284 284 284 285 286 287 288 290 291
252 253 254 255 256 257 258 258 258 259 260 261 262 263 263 265 266 267 269 270 272 273 274 276 278 280 281 282 283 284 285 285 286 288 290 291 292 293
Height
5771 5774 5777 5779 5781 5783 5785 5787 5789 5790 5791 5791 5792 5792 5792 5792 5792 5791 5791 5791 5790 5789 5789 5788 5787 5786 5785 5784 5782 5781 5779 5777 5775 5773 5771 5769 5766 5764
5761 5765 5767 5770 5772 5774 5776 5778 5780 5781 5782 5783 5783 5783 5783 5784 5784 5784 5783 5783 5782 5781 5781 5780 5779 5778 5777 5776 5774 5773 5771 5769 5767 5765 5763 5761 5758 5756
5752 5755 5758 5761 5763 5765 5767 5769 5770 5771 5773 5774 5774 5774 5775 5775 5775 5775 5775 5774 5774 5773 5772 5772 5771 5770 5768 5767 5766 5764 5763 5761 5759 5757 5755 5752 5750 5747
5741 5745 5748 5751 5754 5756 5758 5759 5760 5762 5763 5764 5764 5765 5765 5766 5766 5766 5766 5765 5765 5764 5763 5762 5761 5761 5759 5758 5757 5755 5754 5752 5750 5748 5745 5743 5740 5737
5730 5734 5737 5740 5743 5746 5748 5749 5751 5752 5753 5754 5755 5756 5756 5756 5756 5756 5756 5756 5755 5754 5754 5753 5752 5751 5750 5748 5747 5746 5744 5742 5740 5738 5735 5732 5730 5726
5719 5723 5726 5729 5732 5735 5737 5739 5740 5741 5743 5744 5745 5745 5746 5746 5746 5746 5746 5745 5745 5744 5743 5742 5741 5740 5739 5738 5737 5736 5734 5732 5729 5727 5724 5722 5719 5715
5708 5711 5715 5718 5721 5723 5726 5728 5729 5731 5732 5733 5734 5735 5735 5735 5736 5735 5735 5735 5734 5733 5733 5732 5731 5730 5729 5728 5726 5724 5723 5721 5718 5716 5713 5710 5707 5704
5695 5699 5703 5706 5709 5711 5714 5716 5718 5720 5721 5722 5723 5724 5724 5724 5724 5724 5724 5724 5724 5723 5722 5721 5720 5719 5717 5716 5715 5713 5711 5709 5707 5704 5701 5698 5694 5691
5682 5686 5690 5694 5696 5699 5701 5704 5706 5708 5709 5711 5712 5712 5713 5713 5713 5713 5712 5712 5712 5711 5710 5710 5708 5707 5706 5704 5702 5701 5699 5696 5694 5691 5688 5685 5681 5678
5669 5673 5677 5680 5683 5686 5689 5691 5693 5695 5697 5698 5700 5700 5700 5700 5700 5700 5700 5700 5699 5698 5697 5697 5696 5695 5693 5691 5690 5688 5686 5683 5680 5677 5675 5672 5668 5664
5656 5660 5663 5667 5670 5673 5675 5678 5681 5682 5683 5685 5686 5687 5687 5687 5687 5687 5687 5687 5686 5686 5684 5684 5683 5681 5680 5678 5676 5674 5672 5670 5667 5664 5661 5658 5654 5651
5643 5646 5650 5653 5656 5658 5661 5664 5667 5669 5670 5671 5672 5673 5674 5674 5674 5674 5674 5673 5673 5672 5671 5670 5669 5667 5666 5665 5663 5660 5658 5656 5653 5650 5647 5644 5640 5637
5628 5632 5635 5639 5642 5645 5647 5650 5653 5654 5656 5657 5658 5659 5660 5661 5661 5660 5660 5660 5659 5658 5657 5656 5655 5653 5652 5651 5649 5646 5644 5642 5639 5636 5632 5629 5626 5622
5614 5618 5621 5624 5628 5631 5634 5636 5639 5640 5642 5643 5645 5646 5646 5647 5647 5646 5646 5645 5644 5643 5642 5641 5640 5638 5637 5636 5635 5632 5629 5627 5624 5621 5618 5615 5611 5607
5600 5604 5607 5610 5613 5616 5620 5622 5624 5626 5628 5629 5631 5632 5632 5632 5632 5632 5631 5630 5629 5629 5628 5626 5625 5624 5622 5621 5620 5618 5615 5613 5609 5606 5603 5600 5596 5593
5586 5589 5592 5596 5599 5602 5605 5607 5610 5612 5613 5615 5616 5617 5617 5617 5617 5617 5616 5616 5615 5615 5613 5612 5610 5609 5608 5606 5605 5603 5600 5598 5595 5592 5589 5585 5581 5577
5572 5575 5578 5581 5584 5587 5590 5592 5594 5596 5599 5600 5601 5602 5602 5602 5602 5602 5602 5601 5601 5600 5599 5597 5595 5594 5593 5591 5590 5588 5585 5583 5580 5577 5574 5570 5566 5562
5558 5561 5564 5567 5570 5573 5575 5577 5579 5581 5583 5585 5586 5587 5588 5588 5588 5588 5587 5587 5586 5586 5585 5583 5581 5579 5578 5577 5575 5573 5571 5568 5565 5562 5558 5555 5552 5548
5545 5548 5551 5553 5555 5558 5560 5563 5565 5567 5568 5570 5571 5572 5572 5573 5573 5573 5573 5572 5572 5571 5570 5568 5567 5565 5563 5562 5561 5557 5555 5553 5550 5547 5544 5540 5537 5534
5532 5534 5537 5539 5541 5543 5546 5548 5550 5551 5553 5555 5556 5557 5558 5558 5558 5559 5558 5558 5557 5556 5555 5554 5553 5551 5549 5548 5546 5544 5540 5538 5535 5532 5529 5525 5522 5518
5519 5522 5524 5526 5528 5530 5532 5534 5536 5537 5539 5540 5542 5543 5543 5544 5544 5544 5544 5543 5543 5542 5541 5540 5538 5536 5534 5533 5532 5530 5526 5522 5519 5517 5514 5511 5508 5504
5507 5509 5512 5514 5515 5517 5519 5520 5522 5524 5525 5526 5527 5528 5529 5530 5530 5530 5530 5530 5529 5528 5527 5526 5524 5522 5520 5519 5517 5515 5512 5508 5504 5500 5497 5494 5491 5488
5495 5497 5499 5501 5503 5505 5506 5508 5509 5510 5512 5513 5514 5515 5516 5516 5516 5516 5516 5516 5515 5514 5513 5512 5510 5508 5506 5504 5502 5500 5498 5495 5491 5487 5484 5478 5475 5471